Back to catalog

CZ-6A DEB

AlivePO
NORAD 54353·DEBRIS·🇨🇳 China

Launched Nov 11, 2022 from Taiyuan Satellite Launch Center

Loading…

Next Passes (next 24 hours)

TLE

FreshSource: Space-Track

Epoch: Sep 14, 2026, 08:28 UTC

1 54353U 22151CY  26257.35306558  .00007328  00000-0  11243-2 0  9991
2 54353  99.0892  36.4572 0103664  86.3046 275.0004 14.70357323202673

Track CZ-6A DEB in real time with AllMySat

Download on the App Store